Location: Dompnac
(44.5644°N, 4.1026°E)
Time: 02:46:36
(UTC+00:00)

USA 234 - Pass Details

Date: 22 January 2021
Orbit: 1100 x 1107 km, 123.0° (Epoch: 01 March)

Event Time Altitude Azimuth Distance (km) Brightness Sun altitude
Exits shadow 17:11:13 - 59° (ENE) 3,269 5.1 -6.1°
Reaches altitude 10° 17:12:09 10° 55° (NE) 2,964 4.9 -6.2°
Maximum altitude 17:17:37 30° 358° (N) 1,875 4.3 -7.1°
Drops below altitude 10° 17:23:06 10° 301° (WNW) 2,967 6.1 -8.1°
Sets 17:25:54 0° 291° (WNW) 3,926 7.0 -8.5°
